Estación de Codegua
Ultimos registro cada 15 minutos 66
| N° | Estación | Fecha / Hora | Temperatura | Humedad | Lluvia | Velocidad | Dirección | Radiación | Presion |
| 66 | Codegua | 07-05-2026 16:15 | 16,3 | 60,8 | 0 | 0 | 226 | 228,1 | 963,6 |
| 65 | Codegua | 07-05-2026 16:00 | 16,2 | 60,7 | 0 | 0 | 223 | 291,9 | 963,6 |
| 64 | Codegua | 07-05-2026 15:45 | 17,1 | 63,3 | 0 | 0 | 208 | 330,6 | 963,7 |
| 63 | Codegua | 07-05-2026 15:30 | 16,8 | 63,6 | 0 | 0 | 227 | 364,4 | 963,9 |
| 62 | Codegua | 07-05-2026 15:15 | 17 | 62,6 | 0 | 0 | 225 | 394,4 | 964 |
| 61 | Codegua | 07-05-2026 15:00 | 17 | 64,6 | 0 | 0 | 233 | 434,4 | 964,1 |
| 60 | Codegua | 07-05-2026 14:45 | 17,4 | 60,6 | 0 | 0 | 205 | 468,1 | 963,9 |
| 59 | Codegua | 07-05-2026 14:30 | 17,2 | 61,2 | 0 | 0 | 282 | 496,9 | 963,9 |
| 58 | Codegua | 07-05-2026 14:15 | 16,4 | 63,9 | 0 | 0 | 267 | 515,6 | 964 |
| 57 | Codegua | 07-05-2026 14:00 | 16,4 | 63,6 | 0 | 0 | 256 | 535,6 | 964 |
| 56 | Codegua | 07-05-2026 13:45 | 16 | 64,1 | 0 | 0 | 282 | 559,4 | 964,1 |
| 55 | Codegua | 07-05-2026 13:30 | 15,8 | 68,4 | 0 | 0 | 241 | 571,9 | 964,5 |
| 54 | Codegua | 07-05-2026 13:15 | 15,2 | 68 | 0 | 0 | 105 | 124,4 | 965 |
| 53 | Codegua | 07-05-2026 13:00 | 14,6 | 73,7 | 0 | 0 | 211 | 175,6 | 965,3 |
| 52 | Codegua | 07-05-2026 12:45 | 15,3 | 71,3 | 0 | 0 | 206 | 663,1 | 965,3 |
| 51 | Codegua | 07-05-2026 12:30 | 14,1 | 73,8 | 0 | 0 | 152 | 191,9 | 965,5 |
| 50 | Codegua | 07-05-2026 12:15 | 13,1 | 73,8 | 0 | 0 | 309 | 605,6 | 965,7 |
| 49 | Codegua | 07-05-2026 12:00 | 12,9 | 77,5 | 0 | 0 | 46 | 598,1 | 965,7 |
| 48 | Codegua | 07-05-2026 11:45 | 11,6 | 84,9 | 0 | 0 | 222 | 600,6 | 965,9 |
| 47 | Codegua | 07-05-2026 11:30 | 12 | 84,9 | 0 | 0 | 222 | 119,4 | 965,7 |
| 46 | Codegua | 07-05-2026 11:15 | 11,9 | 83,7 | 0 | 0 | 204 | 164,4 | 965,9 |
| 45 | Codegua | 07-05-2026 11:00 | 11,6 | 86,2 | 0 | 0 | 209 | 243,1 | 965,8 |
| 44 | Codegua | 07-05-2026 10:45 | 12 | 88,3 | 0 | 0 | 119 | 348,1 | 966,1 |
| 43 | Codegua | 07-05-2026 10:30 | 9,9 | 91,7 | 0 | 0 | 124 | 190,6 | 966,1 |
| 42 | Codegua | 07-05-2026 10:15 | 9,6 | 92 | 0 | 0 | 129 | 64,4 | 966,4 |
| 41 | Codegua | 07-05-2026 10:00 | 10 | 92,6 | 0 | 0 | 129 | 95,6 | 966,3 |
| 40 | Codegua | 07-05-2026 09:45 | 9,6 | 93,8 | 0 | 0 | 129 | 83,1 | 966,1 |
| 39 | Codegua | 07-05-2026 09:30 | 9,1 | 93,8 | 0 | 0 | 133 | 69,4 | 966,2 |
| 38 | Codegua | 07-05-2026 09:15 | 9,2 | 94,3 | 0 | 0 | 136 | 64,4 | 966,2 |
| 37 | Codegua | 07-05-2026 09:00 | 9,3 | 95,7 | 0 | 0 | 136 | 83,1 | 966 |
| 36 | Codegua | 07-05-2026 08:45 | 9 | 96,7 | 0 | 0 | 136 | 45,6 | 965,9 |
| 35 | Codegua | 07-05-2026 08:30 | 8,9 | 97,3 | 0 | 0 | 136 | 41,9 | 965,7 |
| 34 | Codegua | 07-05-2026 08:15 | 8,7 | 97,6 | 0 | 0 | 136 | 15,6 | 965,6 |
| 33 | Codegua | 07-05-2026 08:00 | 8,6 | 97,5 | 0 | 0 | 136 | 6,9 | 965,4 |
| 32 | Codegua | 07-05-2026 07:45 | 8,6 | 97,5 | 0 | 0 | 136 | 5,6 | 965,4 |
| 31 | Codegua | 07-05-2026 07:30 | 8,6 | 97,5 | 0 | 0 | 136 | 0,6 | 965,2 |
| 30 | Codegua | 07-05-2026 07:15 | 8,6 | 97,4 | 0 | 0 | 136 | 0,6 | 965,1 |
| 29 | Codegua | 07-05-2026 07:00 | 8,7 | 97,4 | 0 | 0 | 136 | 0,6 | 964,9 |
| 28 | Codegua | 07-05-2026 06:45 | 8,7 | 97,4 | 0 | 0 | 136 | 0,6 | 964,8 |
| 27 | Codegua | 07-05-2026 06:30 | 8,7 | 97,2 | 0 | 0 | 136 | 0,6 | 964,4 |
| 26 | Codegua | 07-05-2026 06:15 | 8,8 | 97,1 | 0 | 0 | 136 | 0,6 | 964,3 |
| 25 | Codegua | 07-05-2026 06:00 | 8,9 | 97,3 | 0 | 0 | 136 | 0,6 | 964,3 |
| 24 | Codegua | 07-05-2026 05:45 | 9 | 97,2 | 0 | 0 | 136 | 0,6 | 964 |
| 23 | Codegua | 07-05-2026 05:30 | 9,2 | 97,2 | 0 | 0 | 136 | 0,6 | 963,8 |
| 22 | Codegua | 07-05-2026 05:15 | 9,3 | 97,3 | 0 | 0 | 136 | 0,6 | 963,7 |
| 21 | Codegua | 07-05-2026 05:00 | 9,2 | 97 | 0 | 0 | 136 | 0,6 | 963,4 |
| 20 | Codegua | 07-05-2026 04:45 | 9,4 | 96,9 | 0 | 0 | 136 | 0,6 | 963,3 |
| 19 | Codegua | 07-05-2026 04:30 | 9,3 | 96,7 | 0 | 0 | 150 | 0,6 | 963,4 |
| 18 | Codegua | 07-05-2026 04:15 | 9,4 | 97 | 0 | 0 | 195 | 0,6 | 963,4 |
| 17 | Codegua | 07-05-2026 04:00 | 9,4 | 96,9 | 0 | 0 | 195 | 0,6 | 963,2 |
| 16 | Codegua | 07-05-2026 03:45 | 9,5 | 96,8 | 0,2 | 0 | 194 | 0,6 | 963,3 |
| 15 | Codegua | 07-05-2026 03:30 | 9,5 | 96,7 | 0 | 0 | 183 | 0,6 | 963,4 |
| 14 | Codegua | 07-05-2026 03:15 | 9,7 | 97,1 | 0 | 0 | 174 | 0,6 | 963,1 |
| 13 | Codegua | 07-05-2026 03:00 | 9,9 | 97,5 | 0 | 0 | 157 | 0,6 | 963,1 |
| 12 | Codegua | 07-05-2026 02:45 | 10 | 97,7 | 0 | 0 | 146 | 0,6 | 963,2 |
| 11 | Codegua | 07-05-2026 02:30 | 10 | 97,8 | 0 | 0 | 146 | 0,6 | 963 |
| 10 | Codegua | 07-05-2026 02:15 | 10 | 97,9 | 0 | 0 | 146 | 0,6 | 962,9 |
| 9 | Codegua | 07-05-2026 02:00 | 10 | 97,8 | 0 | 0 | 146 | 0,6 | 963 |
| 8 | Codegua | 07-05-2026 01:45 | 10,1 | 97,7 | 0 | 0 | 146 | 0,6 | 962,8 |
| 7 | Codegua | 07-05-2026 01:30 | 10,1 | 97,6 | 0 | 0 | 139 | 0,6 | 962,5 |
| 6 | Codegua | 07-05-2026 01:15 | 10,1 | 97,6 | 0 | 0 | 135 | 0,6 | 962,7 |
| 5 | Codegua | 07-05-2026 01:00 | 10,1 | 97,7 | 0 | 0 | 135 | 0,6 | 962,7 |
| 4 | Codegua | 07-05-2026 00:45 | 10,3 | 98,3 | 0 | 0 | 135 | 0,6 | 962,7 |
| 3 | Codegua | 07-05-2026 00:30 | 10,3 | 98,4 | 0 | 0 | 135 | 0,6 | 962,7 |
| 2 | Codegua | 07-05-2026 00:15 | 10,3 | 98,3 | 0 | 0 | 135 | 0,6 | 962,6 |
| 1 | Codegua | 07-05-2026 00:00 | 10,4 | 98,3 | 0 | 0 | 135 | 0,6 | 962,4 |